TimePST,TemperatureF,Dew PointF,Humidity,Sea Level PressureIn,VisibilityMPH,Wind Direction,Wind SpeedMPH,Gust SpeedMPH,PrecipitationIn,Events,Conditions,WindDirDegrees,DateUTC
12:15 AM,50.0,39.2,66,29.93,10.0,NNW,11.5,-,N/A,,Overcast,340,2012-11-09 08:15:00
12:35 AM,48.2,39.2,71,29.94,10.0,NNW,12.7,-,N/A,,Mostly Cloudy,340,2012-11-09 08:35:00
12:55 AM,48.2,39.2,71,29.93,10.0,North,10.4,-,N/A,,Mostly Cloudy,350,2012-11-09 08:55:00
1:15 AM,48.2,39.2,71,29.94,10.0,NNW,8.1,-,N/A,,Overcast,340,2012-11-09 09:15:00
1:35 AM,48.2,39.2,71,29.93,10.0,NNW,9.2,-,N/A,,Scattered Clouds,340,2012-11-09 09:35:00
1:55 AM,46.4,39.2,76,29.94,10.0,North,4.6,-,N/A,,Partly Cloudy,350,2012-11-09 09:55:00
2:15 AM,46.4,41.0,81,29.94,10.0,NNW,5.8,-,N/A,,Mostly Cloudy,340,2012-11-09 10:15:00
2:35 AM,46.4,39.2,76,29.94,10.0,WNW,5.8,-,N/A,,Mostly Cloudy,300,2012-11-09 10:35:00
2:55 AM,44.6,39.2,81,29.94,10.0,West,4.6,-,N/A,,Clear,260,2012-11-09 10:55:00
3:15 AM,44.6,37.4,76,29.94,10.0,West,3.5,-,N/A,,Clear,260,2012-11-09 11:15:00
3:35 AM,42.8,37.4,81,29.94,10.0,West,3.5,-,N/A,,Clear,270,2012-11-09 11:35:00
4:15 AM,42.8,37.4,81,29.94,10.0,West,4.6,-,N/A,,Clear,270,2012-11-09 12:15:00
4:35 AM,42.8,37.4,81,29.94,10.0,West,5.8,-,N/A,,Clear,270,2012-11-09 12:35:00
4:55 AM,42.8,37.4,81,29.94,10.0,West,3.5,-,N/A,,Clear,270,2012-11-09 12:55:00
5:15 AM,39.2,35.6,87,29.94,10.0,Calm,Calm,-,N/A,,Clear,0,2012-11-09 13:15:00
5:35 AM,39.2,35.6,87,29.94,10.0,Calm,Calm,-,N/A,,Clear,0,2012-11-09 13:35:00
5:55 AM,39.2,35.6,87,29.94,10.0,Calm,Calm,-,N/A,,Clear,0,2012-11-09 13:55:00
6:15 AM,39.2,35.6,87,29.95,10.0,Calm,Calm,-,N/A,,Clear,0,2012-11-09 14:15:00
6:55 AM,39.2,35.6,87,29.96,7.0,Calm,Calm,-,N/A,,Clear,0,2012-11-09 14:55:00
7:15 AM,39.2,35.6,87,29.97,10.0,ESE,4.6,-,N/A,,Clear,120,2012-11-09 15:15:00
7:35 AM,41.0,39.2,93,29.97,10.0,Calm,Calm,-,N/A,,Scattered Clouds,0,2012-11-09 15:35:00
7:55 AM,42.8,39.2,87,29.97,3.0,SSE,4.6,-,N/A,,Mostly Cloudy,160,2012-11-09 15:55:00
8:15 AM,44.6,42.8,93,29.98,8.0,SE,3.5,-,N/A,,Partly Cloudy,130,2012-11-09 16:15:00
8:35 AM,-9999,-9999,N/A,29.97,10.0,SSE,4.6,-,N/A,,Clear,150,2012-11-09 16:35:00
8:55 AM,-9999,-9999,N/A,29.97,10.0,SSE,6.9,-,N/A,,Clear,160,2012-11-09 16:55:00
9:15 AM,-9999,-9999,N/A,29.97,10.0,South,5.8,-,N/A,,Mostly Cloudy,180,2012-11-09 17:15:00
9:35 AM,-9999,-9999,N/A,29.97,10.0,SSW,6.9,-,N/A,,Scattered Clouds,200,2012-11-09 17:35:00
9:55 AM,-9999,-9999,N/A,29.97,10.0,SSE,5.8,-,N/A,,Partly Cloudy,150,2012-11-09 17:55:00
10:15 AM,-9999,-9999,N/A,29.97,10.0,South,6.9,-,N/A,,Clear,190,2012-11-09 18:15:00
10:35 AM,-9999,-9999,N/A,29.97,10.0,South,5.8,-,N/A,,Clear,180,2012-11-09 18:35:00
10:55 AM,-9999,-9999,N/A,29.96,10.0,Calm,Calm,-,N/A,,Clear,0,2012-11-09 18:55:00
11:15 AM,-9999,-9999,N/A,29.96,10.0,SSW,3.5,-,N/A,,Scattered Clouds,210,2012-11-09 19:15:00
11:35 AM,-9999,-9999,N/A,29.95,8.0,Calm,Calm,-,N/A,,Mostly Cloudy,0,2012-11-09 19:35:00
11:55 AM,51.8,39.2,62,29.95,10.0,Calm,Calm,-,N/A,Thunderstorm,Mostly Cloudy,0,2012-11-09 19:55:00
12:15 PM,51.8,39.2,62,29.95,9.0,WSW,9.2,-,0.01,,Mostly Cloudy,250,2012-11-09 20:15:00
12:35 PM,53.6,42.8,67,29.95,10.0,NNW,11.5,-,0.02,Thunderstorm,Mostly Cloudy,340,2012-11-09 20:35:00
12:55 PM,51.8,41.0,67,29.94,10.0,NNE,12.7,-,0.02,,Scattered Clouds,30,2012-11-09 20:55:00
1:15 PM,51.8,39.2,62,29.94,10.0,NNE,10.4,-,N/A,,Scattered Clouds,20,2012-11-09 21:15:00
1:35 PM,50.0,39.2,66,29.94,10.0,NNE,8.1,-,N/A,,Scattered Clouds,30,2012-11-09 21:35:00
1:55 PM,51.8,41.0,67,29.93,10.0,North,9.2,-,N/A,,Partly Cloudy,10,2012-11-09 21:55:00
2:15 PM,53.6,41.0,62,29.93,10.0,North,8.1,-,N/A,,Clear,10,2012-11-09 22:15:00
2:35 PM,53.6,39.2,58,29.94,10.0,NNE,5.8,-,N/A,,Clear,20,2012-11-09 22:35:00
2:55 PM,53.6,39.2,58,29.94,10.0,North,10.4,-,N/A,,Partly Cloudy,10,2012-11-09 22:55:00
3:15 PM,53.6,39.2,58,29.94,10.0,NNE,11.5,-,N/A,,Clear,30,2012-11-09 23:15:00
3:35 PM,53.6,37.4,54,29.94,10.0,NNE,9.2,-,N/A,,Clear,30,2012-11-09 23:35:00
3:55 PM,53.6,37.4,54,29.93,10.0,NNE,8.1,-,N/A,,Clear,30,2012-11-09 23:55:00
4:15 PM,53.6,37.4,54,29.93,10.0,NNE,5.8,-,N/A,,Clear,20,2012-11-10 00:15:00
4:35 PM,51.8,37.4,58,29.94,10.0,NNE,6.9,-,N/A,,Clear,20,2012-11-10 00:35:00
4:55 PM,51.8,35.6,54,29.94,10.0,North,4.6,-,N/A,,Clear,10,2012-11-10 00:55:00
5:15 PM,50.0,35.6,58,29.94,10.0,NNE,4.6,-,N/A,,Clear,20,2012-11-10 01:15:00
5:35 PM,48.2,35.6,62,29.95,10.0,NNE,5.8,-,N/A,,Clear,20,2012-11-10 01:35:00
5:55 PM,48.2,35.6,62,29.95,10.0,North,5.8,-,N/A,,Clear,10,2012-11-10 01:55:00
6:15 PM,48.2,35.6,62,29.96,10.0,North,3.5,-,N/A,,Clear,10,2012-11-10 02:15:00
6:35 PM,46.4,35.6,66,29.96,10.0,North,4.6,-,N/A,,Clear,360,2012-11-10 02:35:00
6:55 PM,46.4,35.6,66,29.97,10.0,Calm,Calm,-,N/A,,Clear,0,2012-11-10 02:55:00
7:15 PM,44.6,35.6,71,29.97,10.0,Calm,Calm,-,N/A,,Clear,0,2012-11-10 03:15:00
7:35 PM,42.8,33.8,70,29.97,10.0,West,5.8,-,N/A,,Clear,270,2012-11-10 03:35:00
7:55 PM,42.8,35.6,76,29.98,10.0,WNW,3.5,-,N/A,,Clear,300,2012-11-10 03:55:00
8:15 PM,44.6,35.6,71,29.99,10.0,Calm,Calm,-,N/A,,Partly Cloudy,0,2012-11-10 04:15:00
8:35 PM,44.6,35.6,71,29.99,10.0,Calm,Calm,-,N/A,,Mostly Cloudy,0,2012-11-10 04:35:00
8:55 PM,44.6,35.6,71,30.00,10.0,Calm,Calm,-,N/A,,Mostly Cloudy,0,2012-11-10 04:55:00
9:15 PM,44.6,35.6,71,30.00,10.0,Calm,Calm,-,N/A,,Mostly Cloudy,0,2012-11-10 05:15:00
9:35 PM,44.6,37.4,76,30.01,10.0,WNW,6.9,-,N/A,,Overcast,290,2012-11-10 05:35:00
9:55 PM,46.4,37.4,71,30.01,10.0,Calm,Calm,-,N/A,,Scattered Clouds,0,2012-11-10 05:55:00
10:15 PM,46.4,37.4,71,30.01,10.0,NNE,3.5,-,N/A,,Mostly Cloudy,30,2012-11-10 06:15:00
10:35 PM,46.4,37.4,71,30.01,10.0,NE,4.6,-,N/A,,Overcast,50,2012-11-10 06:35:00
10:55 PM,46.4,37.4,71,30.01,10.0,Calm,Calm,-,N/A,,Overcast,0,2012-11-10 06:55:00
11:15 PM,46.4,37.4,71,30.02,10.0,North,4.6,-,N/A,,Overcast,360,2012-11-10 07:15:00
11:35 PM,46.4,35.6,66,30.01,10.0,Calm,Calm,-,N/A,,Overcast,0,2012-11-10 07:35:00
11:55 PM,44.6,37.4,76,30.02,10.0,Calm,Calm,-,N/A,,Overcast,0,2012-11-10 07:55:00